TimeMST,TemperatureF,Dew PointF,Humidity,Sea Level PressureIn,VisibilityMPH,Wind Direction,Wind SpeedMPH,Gust SpeedMPH,PrecipitationIn,Events,Conditions,WindDirDegrees,DateUTC
12:55 AM,28.4,8.6,43,30.10,10.0,West,17.3,29.9,N/A,,Clear,280,2012-11-12 07:55:00
1:15 AM,28.4,10.4,47,30.09,10.0,West,18.4,31.1,N/A,,Clear,260,2012-11-12 08:15:00
1:35 AM,28.4,10.4,47,30.09,10.0,West,15.0,28.8,N/A,,Clear,270,2012-11-12 08:35:00
1:55 AM,28.4,8.6,43,30.10,10.0,WNW,11.5,28.8,N/A,,Clear,290,2012-11-12 08:55:00
2:15 AM,26.6,8.6,47,30.10,10.0,NW,10.4,21.9,N/A,,Clear,310,2012-11-12 09:15:00
2:35 AM,28.4,10.4,47,30.11,10.0,West,11.5,26.5,N/A,,Clear,280,2012-11-12 09:35:00
2:55 AM,24.8,6.8,46,30.11,10.0,NW,9.2,24.2,N/A,,Clear,320,2012-11-12 09:55:00
3:15 AM,28.4,10.4,47,30.11,10.0,NNW,10.4,18.4,N/A,,Clear,330,2012-11-12 10:15:00
3:35 AM,28.4,6.8,40,30.11,10.0,WSW,4.6,-,N/A,,Clear,250,2012-11-12 10:35:00
3:55 AM,28.4,6.8,40,30.11,10.0,NNW,8.1,27.6,N/A,,Clear,340,2012-11-12 10:55:00
4:15 AM,28.4,8.6,43,30.11,10.0,West,13.8,34.5,N/A,,Clear,260,2012-11-12 11:15:00
4:35 AM,26.6,6.8,43,30.12,10.0,West,17.3,24.2,N/A,,Partly Cloudy,270,2012-11-12 11:35:00
4:55 AM,28.4,8.6,43,30.12,10.0,West,15.0,32.2,N/A,,Mostly Cloudy,270,2012-11-12 11:55:00
5:16 AM,28.4,8.6,43,30.12,10.0,West,19.6,33.4,N/A,,Mostly Cloudy,260,2012-11-12 12:16:00
5:35 AM,30.2,8.6,40,30.13,10.0,West,15.0,27.6,N/A,,Partly Cloudy,260,2012-11-12 12:35:00
5:55 AM,30.2,8.6,40,30.13,10.0,West,18.4,33.4,N/A,,Clear,260,2012-11-12 12:55:00
6:15 AM,30.2,8.6,40,30.11,10.0,WSW,21.9,33.4,N/A,,Clear,250,2012-11-12 13:15:00
6:55 AM,32.0,10.4,41,30.12,10.0,West,20.7,38.0,N/A,,Clear,260,2012-11-12 13:55:00
7:15 AM,32.0,10.4,41,30.13,10.0,WSW,20.7,33.4,N/A,,Clear,250,2012-11-12 14:15:00
7:55 AM,28.4,10.4,47,30.15,10.0,West,11.5,25.3,N/A,,Clear,260,2012-11-12 14:55:00
8:15 AM,32.0,12.2,44,30.14,10.0,West,12.7,24.2,N/A,,Clear,280,2012-11-12 15:15:00
8:55 AM,33.8,14.0,44,30.14,10.0,WSW,24.2,33.4,N/A,,Clear,250,2012-11-12 15:55:00
9:15 AM,35.6,12.2,38,30.15,10.0,West,17.3,33.4,N/A,,Clear,260,2012-11-12 16:15:00
9:35 AM,35.6,14.0,41,30.15,10.0,West,15.0,24.2,N/A,,Clear,280,2012-11-12 16:35:00
9:55 AM,26.6,12.2,55,30.16,10.0,North,5.8,17.3,N/A,,Clear,10,2012-11-12 16:55:00
10:15 AM,15.8,6.8,68,30.17,10.0,NE,11.5,-,N/A,,Clear,50,2012-11-12 17:15:00
10:35 AM,10.4,6.8,85,30.16,10.0,NNE,8.1,-,N/A,,Partly Cloudy,30,2012-11-12 17:35:00
10:55 AM,12.2,8.6,85,30.17,10.0,NNE,6.9,-,N/A,,Partly Cloudy,30,2012-11-12 17:55:00
11:15 AM,12.2,8.6,85,30.17,10.0,NNE,9.2,-,N/A,,Clear,30,2012-11-12 18:15:00
11:35 AM,12.2,10.4,92,30.16,10.0,North,4.6,-,N/A,,Partly Cloudy,10,2012-11-12 18:35:00
11:55 AM,14.0,10.4,86,30.16,10.0,NNE,5.8,-,N/A,,Mostly Cloudy,30,2012-11-12 18:55:00
12:15 PM,15.8,12.2,86,30.15,10.0,NE,4.6,-,N/A,,Scattered Clouds,40,2012-11-12 19:15:00
12:35 PM,15.8,10.4,79,30.15,10.0,NNE,9.2,-,N/A,,Clear,30,2012-11-12 19:35:00
12:55 PM,15.8,10.4,79,30.14,10.0,NNE,9.2,-,N/A,,Clear,30,2012-11-12 19:55:00
1:15 PM,15.8,12.2,86,30.14,10.0,NNE,6.9,-,N/A,,Clear,30,2012-11-12 20:15:00
1:35 PM,19.4,14.0,80,30.14,10.0,NE,6.9,-,N/A,,Clear,40,2012-11-12 20:35:00
1:55 PM,19.4,14.0,80,30.14,10.0,NNE,8.1,-,N/A,,Clear,30,2012-11-12 20:55:00
2:15 PM,19.4,15.8,86,30.14,10.0,North,5.8,-,N/A,,Clear,10,2012-11-12 21:15:00
2:35 PM,23.0,17.6,80,30.14,10.0,Calm,Calm,-,N/A,,Clear,0,2012-11-12 21:35:00
2:56 PM,24.8,17.6,74,30.15,10.0,NNW,3.5,17.3,N/A,,Clear,340,2012-11-12 21:56:00
3:35 PM,30.2,19.4,64,30.13,10.0,North,9.2,18.4,N/A,,Clear,350,2012-11-12 22:35:00
3:55 PM,28.4,19.4,69,30.14,10.0,NNW,6.9,-,N/A,,Clear,330,2012-11-12 22:55:00
4:15 PM,26.6,19.4,74,30.14,10.0,Calm,Calm,-,N/A,,Clear,0,2012-11-12 23:15:00
4:35 PM,26.6,19.4,74,30.13,10.0,NE,3.5,-,N/A,,Clear,40,2012-11-12 23:35:00
4:55 PM,21.2,17.6,86,30.13,10.0,NE,9.2,-,N/A,,Clear,50,2012-11-12 23:55:00
5:15 PM,19.4,14.0,80,30.14,10.0,NE,13.8,-,N/A,,Clear,50,2012-11-13 00:15:00
5:35 PM,19.4,15.8,86,30.14,10.0,NNE,4.6,-,N/A,,Clear,20,2012-11-13 00:35:00
5:55 PM,19.4,12.2,74,30.14,10.0,NNE,4.6,-,N/A,,Clear,30,2012-11-13 00:55:00
6:15 PM,17.6,12.2,79,30.13,10.0,North,4.6,-,N/A,,Clear,350,2012-11-13 01:15:00
6:35 PM,19.4,14.0,80,30.13,10.0,NNE,4.6,-,N/A,,Clear,30,2012-11-13 01:35:00
6:55 PM,17.6,14.0,86,30.13,10.0,NNE,5.8,-,N/A,,Mostly Cloudy,30,2012-11-13 01:55:00
7:35 PM,30.2,17.6,60,30.13,10.0,West,11.5,17.3,N/A,,Clear,260,2012-11-13 02:35:00
7:55 PM,37.4,17.6,45,30.12,10.0,West,15.0,33.4,N/A,,Clear,270,2012-11-13 02:55:00
8:15 PM,37.4,15.8,41,30.12,10.0,West,15.0,28.8,N/A,,Clear,260,2012-11-13 03:15:00
8:35 PM,37.4,14.0,38,30.12,10.0,West,16.1,29.9,N/A,,Clear,260,2012-11-13 03:35:00
9:15 PM,37.4,14.0,38,30.11,10.0,West,16.1,26.5,N/A,,Scattered Clouds,260,2012-11-13 04:15:00
9:35 PM,35.6,15.8,44,30.11,10.0,NNW,10.4,18.4,N/A,,Scattered Clouds,330,2012-11-13 04:35:00
9:55 PM,33.8,15.8,48,30.12,10.0,WNW,16.1,25.3,N/A,,Mostly Cloudy,300,2012-11-13 04:55:00
10:15 PM,37.4,15.8,41,30.12,10.0,WSW,17.3,27.6,N/A,,Mostly Cloudy,240,2012-11-13 05:15:00
10:35 PM,30.2,14.0,51,30.13,10.0,WNW,12.7,24.2,N/A,,Overcast,290,2012-11-13 05:35:00
10:55 PM,30.2,15.8,55,30.13,10.0,NW,9.2,23.0,N/A,,Overcast,310,2012-11-13 05:55:00
11:15 PM,30.2,15.8,55,30.13,10.0,WNW,5.8,-,N/A,,Overcast,300,2012-11-13 06:15:00
11:35 PM,24.8,12.2,59,30.14,10.0,North,4.6,-,N/A,,Overcast,350,2012-11-13 06:35:00
11:55 PM,30.2,17.6,60,30.15,10.0,WNW,4.6,-,N/A,,Overcast,300,2012-11-13 06:55:00